This demonstration page uses our WeatherBlox Daily Observations layout. Learn more.

Left ArrowRight Arrow

Hourly Observations for July 1, 2017

Temp ( °F °C ) Dew Point ( °F °C ) Humidity (%) Winds ( mph kmh ) Pressure ( in mb ) Visibility ( mi km ) Precip ( " mm )
12:53 am 00:53 Clear 61 16.1 54 12.2 78 78 Calm 30.07 1018 10 16 0.00 0.00
1:53 am 01:53 Clear 59 15 55 12.8 87 87 SW 3 6 30.07 1018 10 16 0.00 0.00
2:53 am 02:53 Clear 58 14.4 54 12.2 87 87 WSW 5 7 30.06 1018 10 16 0.00 0.00
3:53 am 03:53 Clear 59 15 54 12.2 83 83 WSW 5 7 30.04 1017 10 16 0.00 0.00
4:53 am 04:53 Clear 58 14.4 53 11.7 84 84 Calm 30.04 1017 10 16 0.00 0.00
5:53 am 05:53 Clear 57 13.9 52 11.1 83 83 Calm 30.06 1018 10 16 0.00 0.00
6:53 am 06:53 Sunny 58 14.4 53 11.7 84 84 undefined N/A 30.07 1018 10 16 0.00 0.00
7:53 am 07:53 Sunny 63 17.2 55 12.8 76 76 undefined N/A 30.09 1019 10 16 0.00 0.00
8:53 am 08:53 Sunny 68 20 57 13.9 68 68 undefined N/A 30.09 1019 10 16 0.00 0.00
9:53 am 09:53 Sunny 74 23.3 58 14.4 57 57 SW 9 15 30.09 1019 10 16 0.00 0.00
10:53 am 10:53 Sunny 76 24.4 56 13.3 50 50 WSW 13 20 30.09 1019 10 16 0.00 0.00
11:53 am 11:53 Sunny 79 26.1 54 12.2 42 42 WSW 13 20 30.08 1019 10 16 0.00 0.00
12:53 pm 12:53 Sunny 81 27.2 54 12.2 39 39 SW 12 19 30.06 1018 10 16 0.00 0.00
1:53 pm 13:53 Sunny 83 28.3 53 11.7 36 36 SSW 15 24 30.04 1017 10 16 0.00 0.00
2:53 pm 14:53 Sunny 86 30 52 11.1 31 31 WSW 13 20 30.01 1016 10 16 0.00 0.00
3:53 pm 15:53 Sunny 87 30.6 53 11.7 31 31 SW 12 19 30.00 1016 10 16 0.00 0.00
4:53 pm 16:53 Sunny 88 31.1 54 12.2 31 31 SW 10 17 29.98 1015 10 16 0.00 0.00
5:53 pm 17:53 Sunny 87 30.6 54 12.2 32 32 S 13 20 29.96 1014 10 16 0.00 0.00
6:53 pm 18:53 Sunny 86 30 53 11.7 32 32 S 10 17 29.95 1014 10 16 0.00 0.00
7:53 pm 19:53 Sunny 84 28.9 55 12.8 37 37 S 7 11 29.94 1014 10 16 0.00 0.00
8:53 pm 20:53 Sunny 80 26.7 56 13.3 44 44 S 8 13 29.94 1014 10 16 0.00 0.00
9:53 pm 21:53 Clear 76 24.4 56 13.3 50 50 S 7 11 29.94 1014 10 16 0.00 0.00
10:53 pm 22:53 Clear 73 22.8 55 12.8 53 53 S 8 13 29.96 1015 10 16 0.00 0.00
11:53 pm 23:53 Clear 72 22.2 54 12.2 53 53 S 8 13 29.96 1015 10 16 0.00 0.00

Powered by AerisWeather